�������l�o���
Date,Time,MP-1(��Sv/h),MP-2(��Sv/h),MP-3(��Sv/h),MP-4(��Sv/h),MP-5(��Sv/h),MP-6(��Sv/h),MP-7(��Sv/h),MP-8(��Sv/h),����,����(m/s),���J
2022/05/27,00:00,0.585,0.859,0.557,1.029,0.737,0.348,0.597,0.566,��,9.8,��
2022/05/27,00:10,0.588,0.859,0.561,1.032,0.738,0.346,0.600,0.564,��,8.3,��
2022/05/27,00:20,0.587,0.858,0.559,1.033,0.738,0.348,0.600,0.564,��,8.4,��
2022/05/27,00:30,0.587,0.859,0.559,1.031,0.739,0.348,0.600,0.565,��,7.1,��
2022/05/27,00:40,0.586,0.858,0.560,1.030,0.736,0.347,0.600,0.566,��,6.7,��
2022/05/27,00:50,0.585,0.857,0.558,1.032,0.740,0.348,0.599,0.565,��,6.6,��
2022/05/27,01:00,0.585,0.858,0.558,1.033,0.738,0.347,0.599,0.564,��,8.3,��
2022/05/27,01:10,0.586,0.858,0.558,1.033,0.739,0.348,0.599,0.564,��,8.2,��
2022/05/27,01:20,0.586,0.858,0.556,1.031,0.738,0.346,0.600,0.565,��쓌,7.0,��
2022/05/27,01:30,0.584,0.855,0.559,1.032,0.739,0.347,0.599,0.564,��,8.2,��
2022/05/27,01:40,0.585,0.854,0.558,1.031,0.737,0.347,0.599,0.565,��,8.1,��
2022/05/27,01:50,0.585,0.855,0.559,1.032,0.738,0.348,0.600,0.565,��,8.0,��
2022/05/27,02:00,0.585,0.857,0.558,1.032,0.737,0.346,0.600,0.565,��,9.1,��
2022/05/27,02:10,0.584,0.856,0.558,1.031,0.738,0.348,0.601,0.565,��,10.2,��
2022/05/27,02:20,0.585,0.853,0.559,1.031,0.737,0.348,0.599,0.564,��,9.7,��
2022/05/27,02:30,0.584,0.854,0.558,1.031,0.738,0.345,0.598,0.565,��,9.3,��
2022/05/27,02:40,0.586,0.856,0.558,1.032,0.737,0.346,0.598,0.565,��,9.0,��
2022/05/27,02:50,0.586,0.856,0.560,1.032,0.736,0.347,0.600,0.566,��,9.2,��
2022/05/27,03:00,0.586,0.855,0.558,1.031,0.737,0.348,0.599,0.566,��,9.4,��
2022/05/27,03:10,0.585,0.855,0.560,1.032,0.737,0.348,0.600,0.565,��,9.4,��
2022/05/27,03:20,0.586,0.858,0.558,1.032,0.737,0.347,0.601,0.565,��,9.2,��
2022/05/27,03:30,0.585,0.856,0.558,1.031,0.738,0.347,0.600,0.565,��,8.8,��
2022/05/27,03:40,0.586,0.857,0.559,1.032,0.739,0.346,0.599,0.566,��,8.5,��
2022/05/27,03:50,0.585,0.857,0.559,1.030,0.738,0.348,0.600,0.565,��,8.3,��
2022/05/27,04:00,0.585,0.857,0.557,1.032,0.739,0.347,0.601,0.565,��,11.3,��
2022/05/27,04:10,0.586,0.857,0.558,1.032,0.739,0.347,0.600,0.564,��,10.2,��
2022/05/27,04:20,0.585,0.855,0.559,1.032,0.737,0.348,0.601,0.565,��,10.5,��
2022/05/27,04:30,0.584,0.858,0.558,1.032,0.737,0.345,0.601,0.563,��,10.4,��
2022/05/27,04:40,0.585,0.856,0.559,1.034,0.737,0.346,0.601,0.564,��,9.8,�L
2022/05/27,04:50,0.585,0.857,0.559,1.031,0.737,0.347,0.601,0.565,��쓌,9.8,�L
2022/05/27,05:00,0.585,0.855,0.558,1.029,0.738,0.347,0.599,0.566,��쓌,10.7,�L
2022/05/27,05:10,0.581,0.852,0.558,1.032,0.735,0.347,0.598,0.564,��,9.4,�L
2022/05/27,05:20,0.581,0.851,0.555,1.031,0.734,0.347,0.599,0.564,��,9.0,�L
2022/05/27,05:30,0.581,0.851,0.553,1.031,0.735,0.346,0.599,0.563,��,8.3,��
2022/05/27,05:40,0.580,0.849,0.557,1.031,0.736,0.346,0.598,0.561,��,8.6,�L
2022/05/27,05:50,0.576,0.848,0.554,1.029,0.732,0.346,0.597,0.562,��쓌,8.0,�L
2022/05/27,06:00,0.573,0.835,0.549,1.021,0.720,0.343,0.591,0.555,��쓌,9.3,�L
2022/05/27,06:10,0.565,0.819,0.539,1.006,0.709,0.338,0.587,0.553,��,11.1,�L
2022/05/27,06:20,0.563,0.817,0.539,1.002,0.708,0.341,0.586,0.552,��쓌,11.3,�L
2022/05/27,06:30,0.563,0.814,0.537,0.997,0.709,0.340,0.584,0.553,��쓌,11.6,�L
2022/05/27,06:40,0.557,0.807,0.537,0.992,0.703,0.337,0.582,0.550,��,9.4,�L
2022/05/27,06:50,0.560,0.810,0.536,0.987,0.699,0.337,0.584,0.551,��쓌,11.6,�L
2022/05/27,07:00,0.564,0.812,0.538,0.989,0.702,0.340,0.582,0.552,��쓌,12.2,�L
2022/05/27,07:10,0.559,0.811,0.537,0.989,0.701,0.339,0.584,0.551,��쓌,13.2,�L
2022/05/27,07:20,0.563,0.812,0.538,0.988,0.702,0.339,0.584,0.551,��쓌,13.0,��
2022/05/27,07:30,0.562,0.815,0.538,0.989,0.702,0.341,0.585,0.551,��쓌,16.4,�L
2022/05/27,07:40,0.562,0.811,0.540,0.989,0.702,0.339,0.582,0.552,��쓌,15.5,�L
2022/05/27,07:50,0.561,0.812,0.531,0.990,0.701,0.340,0.582,0.551,��쓌,16.3,�L
2022/05/27,08:00,0.560,0.808,0.532,0.987,0.697,0.338,0.581,0.550,��쓌,15.5,�L
2022/05/27,08:10,0.560,0.809,0.532,0.984,0.698,0.337,0.582,0.550,��쓌,16.3,�L
2022/05/27,08:20,0.559,0.807,0.532,0.986,0.699,0.337,0.583,0.551,��쓌,15.3,�L
2022/05/27,08:30,0.562,0.806,0.533,0.986,0.698,0.337,0.581,0.550,��쓌,16.1,�L
2022/05/27,08:40,0.560,0.806,0.532,0.985,0.699,0.337,0.580,0.550,��쓌,17.4,�L
2022/05/27,08:50,0.563,0.809,0.532,0.984,0.699,0.337,0.581,0.551,��쓌,16.4,�L
2022/05/27,09:00,0.561,0.808,0.532,0.986,0.696,0.339,0.581,0.552,��쓌,16.9,�L
2022/05/27,09:10,0.560,0.808,0.530,0.987,0.697,0.339,0.581,0.552,��쓌,17.1,�L
2022/05/27,09:20,0.561,0.807,0.530,0.984,0.698,0.339,0.581,0.551,��쓌,15.2,�L
2022/05/27,09:30,0.562,0.806,0.526,0.986,0.698,0.339,0.581,0.550,��쓌,15.3,�L
2022/05/27,09:40,0.559,0.807,0.527,0.983,0.696,0.340,0.579,0.551,��쓌,15.2,�L
2022/05/27,09:50,0.559,0.805,0.528,0.984,0.695,0.340,0.580,0.549,��쓌,14.7,�L
2022/05/27,10:00,0.559,0.803,0.528,0.983,0.694,0.340,0.579,0.550,��쓌,15.2,�L
2022/05/27,10:10,0.558,0.802,0.528,0.983,0.693,0.339,0.578,0.551,��쓌,15.5,�L
2022/05/27,10:20,0.561,0.803,0.529,0.981,0.695,0.340,0.578,0.549,��쓌,16.8,�L
2022/05/27,10:30,0.559,0.802,0.528,0.980,0.692,0.341,0.579,0.549,��쓌,17.4,�L
2022/05/27,10:40,0.560,0.804,0.528,0.980,0.691,0.339,0.578,0.548,��쓌,18.8,�L
2022/05/27,10:50,0.559,0.799,0.527,0.978,0.691,0.338,0.578,0.547,��쓌,17.2,�L
2022/05/27,11:00,0.558,0.795,0.525,0.977,0.687,0.340,0.577,0.548,��쓌,16.9,�L
2022/05/27,11:10,0.555,0.795,0.525,0.975,0.683,0.337,0.578,0.549,��쓌,17.9,�L
2022/05/27,11:20,0.552,0.792,0.522,0.969,0.679,0.338,0.575,0.546,��쓌,13.0,�L
2022/05/27,11:30,0.551,0.790,0.524,0.962,0.677,0.337,0.572,0.544,-,CALM,�L
2022/05/27,11:40,0.552,0.788,0.525,0.963,0.678,0.336,0.572,0.545,��쓌,17.9,�L
2022/05/27,11:50,0.553,0.795,0.525,0.962,0.680,0.338,0.574,0.547,��쓌,12.1,�L
2022/05/27,12:00,0.553,0.792,0.526,0.961,0.676,0.337,0.575,0.546,��쓌,14.1,�L
2022/05/27,12:10,0.552,0.790,0.523,0.959,0.675,0.337,0.573,0.543,��쓌,15.0,�L
2022/05/27,12:20,0.550,0.789,0.521,0.956,0.672,0.338,0.573,0.545,��쓌,13.8,�L
2022/05/27,12:30,0.551,0.788,0.524,0.954,0.671,0.337,0.573,0.543,��쓌,13.0,�L
2022/05/27,12:40,0.549,0.785,0.519,0.953,0.667,0.336,0.570,0.542,-,CALM,�L
2022/05/27,12:50,0.545,0.783,0.517,0.944,0.660,0.334,0.568,0.540,��,10.9,�L
2022/05/27,13:00,0.547,0.783,0.520,0.947,0.660,0.335,0.571,0.541,��쐼,7.1,�L
2022/05/27,13:10,0.535,0.767,0.510,0.923,0.639,0.326,0.563,0.535,-,CALM,�L
2022/05/27,13:20,0.534,0.767,0.508,0.919,0.633,0.325,0.560,0.530,���k��,7.5,�L
2022/05/27,13:30,0.538,0.775,0.512,0.927,0.639,0.329,0.559,0.494,���k��,2.2,�L
2022/05/27,13:40,0.543,0.782,0.516,0.938,0.648,0.333,0.562,0.445,���k��,4.6,�L
2022/05/27,13:50,0.548,0.786,0.519,0.947,0.650,0.336,0.565,0.437,��,2.9,�L
2022/05/27,14:00,0.550,0.788,0.520,0.951,0.653,0.336,0.566,0.439,���k��,1.2,�L
2022/05/27,14:10,0.554,0.791,0.520,0.958,0.657,0.336,0.569,0.448,��쓌,0.9,��
2022/05/27,14:20,0.553,0.792,0.522,0.959,0.660,0.336,0.569,0.460,-,CALM,��
2022/05/27,14:30,0.551,0.795,0.522,0.962,0.660,0.336,0.571,0.481,�k�k��,0.9,��
2022/05/27,14:40,0.554,0.795,0.522,0.967,0.662,0.337,0.571,0.508,�k�k��,0.8,��
2022/05/27,14:50,0.556,0.795,0.526,0.966,0.664,0.337,0.571,0.533,���쓌,1.2,��
2022/05/27,15:00,0.555,0.797,0.522,0.967,0.663,0.335,0.571,0.542,���쓌,1.9,��
2022/05/27,15:10,0.553,0.796,0.521,0.970,0.664,0.335,0.572,0.545,���쓌,2.6,��
2022/05/27,15:20,0.555,0.797,0.521,0.970,0.665,0.335,0.572,0.544,�쓌,2.2,��
2022/05/27,15:30,0.554,0.799,0.521,0.970,0.665,0.336,0.575,0.546,��,2.0,��
2022/05/27,15:40,0.555,0.799,0.522,0.973,0.665,0.336,0.573,0.546,��쓌,2.3,��
2022/05/27,15:50,0.554,0.799,0.522,0.973,0.666,0.334,0.574,0.545,��쓌,1.5,��
2022/05/27,16:00,0.555,0.801,0.522,0.972,0.666,0.336,0.573,0.547,��쓌,1.5,��
2022/05/27,16:10,0.555,0.801,0.522,0.975,0.666,0.337,0.574,0.547,�쓌,2.2,��
2022/05/27,16:20,0.553,0.802,0.524,0.978,0.668,0.335,0.576,0.546,��쓌,0.9,�L
2022/05/27,16:30,0.555,0.802,0.523,0.974,0.669,0.335,0.574,0.544,�쓌,0.6,�L
2022/05/27,16:40,0.555,0.802,0.523,0.978,0.670,0.335,0.576,0.548,���쓌,1.5,�L
2022/05/27,16:50,0.556,0.803,0.524,0.977,0.671,0.337,0.575,0.547,��쓌,0.9,�L
2022/05/27,17:00,0.557,0.806,0.527,0.978,0.670,0.335,0.576,0.548,��쓌,1.7,��
2022/05/27,17:10,0.559,0.808,0.525,0.978,0.670,0.337,0.577,0.548,���쓌,0.8,��
2022/05/27,17:20,0.557,0.806,0.524,0.979,0.672,0.336,0.576,0.547,���쓌,1.4,��
2022/05/27,17:30,0.559,0.805,0.526,0.976,0.672,0.336,0.577,0.547,���k��,1.4,��
2022/05/27,17:40,0.558,0.807,0.525,0.980,0.671,0.336,0.577,0.547,�k�k��,1.7,��
2022/05/27,17:50,0.556,0.806,0.524,0.979,0.673,0.337,0.577,0.547,�k�k��,1.1,��
2022/05/27,18:00,0.556,0.806,0.524,0.983,0.672,0.337,0.576,0.548,�k,0.6,��
2022/05/27,18:10,0.558,0.807,0.524,0.980,0.674,0.338,0.577,0.546,�k��,0.9,��
2022/05/27,18:20,0.557,0.808,0.524,0.982,0.674,0.339,0.578,0.551,�k��,0.8,��
2022/05/27,18:30,0.558,0.809,0.525,0.981,0.674,0.338,0.578,0.548,���k��,1.2,��
2022/05/27,18:40,0.561,0.808,0.527,0.982,0.677,0.338,0.577,0.549,���k��,1.4,��
2022/05/27,18:50,0.559,0.809,0.526,0.983,0.676,0.338,0.577,0.550,�k��,1.7,��
2022/05/27,19:00,0.559,0.809,0.527,0.982,0.678,0.339,0.579,0.551,�k�k��,2.0,��
2022/05/27,19:10,0.559,0.811,0.526,0.982,0.677,0.340,0.578,0.550,�k��,2.5,��
2022/05/27,19:20,0.560,0.808,0.525,0.984,0.675,0.339,0.580,0.550,�k��,2.3,��
2022/05/27,19:30,0.560,0.808,0.527,0.983,0.677,0.341,0.580,0.549,�k�k��,2.8,��
2022/05/27,19:40,0.561,0.810,0.527,0.983,0.679,0.341,0.580,0.550,�k�k��,3.8,��
2022/05/27,19:50,0.561,0.812,0.527,0.983,0.678,0.342,0.579,0.552,�k�k��,4.2,��
2022/05/27,20:00,0.560,0.811,0.526,0.982,0.679,0.341,0.580,0.551,�k�k��,4.0,��
2022/05/27,20:10,0.560,0.809,0.528,0.984,0.677,0.340,0.580,0.550,�k�k��,3.4,��
2022/05/27,20:20,0.562,0.810,0.529,0.986,0.678,0.340,0.581,0.549,�k�k��,3.6,��
2022/05/27,20:30,0.563,0.811,0.526,0.985,0.677,0.341,0.582,0.551,�k,3.5,��
2022/05/27,20:40,0.560,0.811,0.527,0.985,0.678,0.339,0.584,0.550,�k�k��,4.2,��
2022/05/27,20:50,0.560,0.810,0.526,0.984,0.679,0.341,0.581,0.551,�k�k��,3.9,��
2022/05/27,21:00,0.560,0.812,0.528,0.985,0.680,0.340,0.582,0.551,�k�k��,3.8,��
2022/05/27,21:10,0.560,0.810,0.526,0.986,0.679,0.340,0.581,0.551,�k�k��,3.9,��
2022/05/27,21:20,0.561,0.812,0.528,0.985,0.680,0.340,0.582,0.551,�k�k��,3.0,��
2022/05/27,21:30,0.560,0.811,0.527,0.987,0.681,0.340,0.582,0.551,�k�k��,4.2,��
2022/05/27,21:40,0.560,0.811,0.527,0.987,0.681,0.341,0.581,0.552,�k��,3.4,��
2022/05/27,21:50,0.560,0.811,0.528,0.985,0.680,0.340,0.582,0.549,�k��,2.9,��
2022/05/27,22:00,0.561,0.813,0.529,0.985,0.679,0.340,0.582,0.550,�k��,3.2,��
2022/05/27,22:10,0.562,0.811,0.528,0.986,0.681,0.342,0.581,0.551,�k��,2.5,��
2022/05/27,22:20,0.562,0.811,0.528,0.987,0.681,0.340,0.581,0.553,�k��,2.2,��
2022/05/27,22:30,0.561,0.811,0.527,0.987,0.682,0.340,0.583,0.552,���k��,3.6,��
2022/05/27,22:40,0.561,0.811,0.526,0.985,0.684,0.340,0.582,0.552,�k��,3.9,��
2022/05/27,22:50,0.562,0.812,0.528,0.985,0.682,0.341,0.580,0.551,���k��,4.0,��
2022/05/27,23:00,0.561,0.810,0.528,0.987,0.678,0.341,0.582,0.551,���k��,3.5,��
2022/05/27,23:10,0.561,0.812,0.528,0.987,0.682,0.341,0.584,0.551,���k��,2.5,��
2022/05/27,23:20,0.563,0.812,0.526,0.987,0.682,0.340,0.583,0.552,��,2.6,��
2022/05/27,23:30,0.562,0.813,0.528,0.986,0.682,0.340,0.583,0.550,���쐼,2.3,��
2022/05/27,23:40,0.561,0.813,0.527,0.987,0.682,0.342,0.581,0.552,���쐼,1.7,��
2022/05/27,23:50,0.561,0.812,0.528,0.986,0.682,0.341,0.582,0.552,-,CALM,��
